Wind_Speed
24 24 26 28 32 34 33 35 34 36 38 39 36 33 27 26 30 30 33 30 30 26 27 34 39 43 44 45 53 55 56 60 63 66 60 56 56 59 62 60 60 54 51 53 50 48 46
22 24 27 29 33 35 35 36 36 40 40 41 40 40 37 33 33 30 29 27 30 33 30 29 32 38 45 53 50 52 50 52 54 54 56 59 61 61 57 55 55 50 47 47 48 49 50
18 22 29 33 35 34 36 39 38 40 41 42 41 40 44 44 39 29 29 40 34 28 31 35 30 33 36 39 49 51 51 51 50 50 51 54 55 55 54 56 55 51 50 48 48 53 52
24 26 33 37 39 39 40 43 40 40 39 41 45 43 43 45 43 38 35 34 31 37 37 27 30 32 35 36 38 48 55 57 56 55 56 56 56 55 57 59 55 56 54 53 59 62 61
34 37 36 39 40 41 41 40 39 43 42 42 43 42 49 53 48 44 41 44 45 50 53 43 32 31 33 37 41 42 45 50 55 60 64 64 63 65 64 63 61 62 65 66 64 66 69
30 32 34 35 38 43 41 41 41 47 47 51 48 50 51 52 55 49 48 47 52 57 58 42 38 38 35 35 43 50 50 52 55 59 63 68 71 71 70 72 71 75 71 69 68 70 77
30 31 38 41 40 41 42 44 44 48 52 51 52 58 58 55 60 58 52 57 60 56 57 54 52 45 47 48 49 52 51 56 61 62 67 70 71 67 73 79 79 79 76 73 75 78 81
32 38 40 40 42 43 45 46 49 53 53 55 57 60 60 64 61 60 60 57 56 54 50 59 58 59 59 61 63 65 65 66 64 64 69 74 73 77 78 77 79 83 84 79 83 83 90
37 40 42 44 44 46 48 51 56 53 58 60 63 64 63 67 64 64 60 57 57 60 59 62 63 67 71 71 71 74 77 81 81 80 80 79 76 81 82 82 85 85 82 81 90 94 92
42 43 43 45 46 48 51 55 57 58 62 64 65 64 69 69 69 64 61 61 63 64 66 65 70 75 79 80 82 84 83 86 89 92 93 91 86 88 93 89 95 90 91 95 94 94 94
43 45 45 46 46 48 49 52 61 63 66 67 64 69 74 67 65 66 68 70 73 72 75 77 81 80 85 86 90 92 97 100 100 102 105 99 100 103 102 97 107 96 102 101 101 103 104
47 47 44 47 49 51 53 58 62 65 66 66 68 71 78 67 67 68 73 78 83 83 86 90 90 94 96 98 100 95 95 102 106 109 115 108 110 110 110 113 113 107 108 111 111 110 112
48 44 47 53 53 54 57 62 63 63 66 73 70 80 73 70 73 76 79 81 90 88 95 99 105 106 109 108 110 109 106 108 105 106 111 112 110 116 119 119 121 119 117 120 121 118 112
46 49 51 54 56 58 63 67 64 68 72 74 80 73 79 80 83 84 87 92 93 100 104 113 118 116 117 117 115 115 114 117 118 117 119 118 115 116 118 124 118 126 126 128 125 122 121
51 51 54 55 58 62 66 62 63 66 73 79 78 82 85 84 88 90 90 97 101 109 115 120 121 123 120 120 121 114 110 111 112 113 113 112 112 110 114 118 121 123 131 129 132 130 130
49 51 54 56 60 62 60 69 70 75 77 79 81 88 87 88 90 97 104 109 115 121 127 132 130 120 117 112 108 104 98 99 97 97 97 96 92 93 98 108 116 121 124 125 132 132 133
49 51 56 62 60 65 66 70 73 79 81 85 87 88 93 94 104 110 114 117 123 131 133 130 124 117 110 104 95 91 88 86 85 84 84 83 80 75 82 92 94 102 110 120 126 133 133
51 54 59 61 65 69 74 78 80 81 88 88 93 96 101 104 111 121 125 131 133 135 133 129 120 113 105 100 91 89 85 81 80 79 81 78 70 67 75 81 84 86 95 98 111 123 131
53 57 61 65 72 76 78 80 80 86 88 91 94 103 110 114 119 124 135 140 140 138 129 121 112 105 101 96 87 84 79 78 74 71 69 71 71 67 70 71 75 80 87 89 92 103 112
58 61 64 70 71 77 83 86 87 93 99 102 101 110 120 124 131 136 143 149 145 130 127 117 108 102 92 89 84 77 73 72 69 67 64 60 61 66 68 73 73 74 76 80 83 91 99
62 65 68 74 78 84 86 91 95 101 105 112 114 118 125 135 139 147 155 150 141 132 119 110 100 94 86 78 75 77 70 65 66 60 57 54 55 55 63 71 74 71 73 73 74 78 85
65 68 75 78 85 87 88 95 100 108 113 114 123 127 131 141 146 154 155 143 134 122 111 103 92 83 81 77 73 65 60 61 57 57 52 49 48 48 55 61 66 70 72 73 75 74 75
66 74 79 81 88 92 95 99 109 113 116 122 127 134 139 145 153 156 148 139 124 112 104 97 87 78 76 75 71 63 53 51 49 49 46 45 43 44 49 53 59 63 69 72 74 75 76
79 77 83 89 95 97 99 106 110 118 121 128 133 138 143 150 159 150 138 123 113 105 97 91 84 76 72 68 63 58 50 48 45 43 41 41 41 42 44 47 51 57 62 65 69 73 74
76 80 87 93 97 99 104 110 115 122 129 135 141 144 151 158 157 140 127 113 104 97 92 90 83 75 69 63 57 54 51 48 44 40 40 39 38 40 40 41 44 49 53 56 58 63 70
79 84 93 94 100 104 112 117 124 129 133 140 146 151 159 160 146 126 118 106 94 88 83 80 77 73 66 59 54 50 49 47 43 40 37 37 37 38 39 39 41 46 50 52 54 59 66
83 92 93 95 104 113 117 121 125 133 140 147 150 157 165 151 134 121 111 100 92 82 77 71 68 68 64 57 52 47 46 44 43 39 38 35 35 35 38 39 40 45 48 48 51 56 58
91 91 94 100 111 116 118 125 132 137 145 150 155 163 157 136 123 113 103 95 87 81 74 69 65 62 57 52 49 44 42 42 39 38 37 36 34 35 36 38 40 42 44 47 49 51 53
90 94 99 109 112 120 125 128 136 142 151 152 162 159 143 129 113 104 97 88 80 75 72 67 63 58 50 45 44 44 41 38 37 35 34 34 35 34 35 37 40 42 44 45 47 50 50
Wind_Direction
0 2 358 355 354 353 355 357 358 358 358 357 356 350 348 344 343 345 334 324 303 302 282 268 265 265 264 268 270 266 270 271 271 271 270 269 271 270 270 273 273 269 267 270 267 267 259
359 355 353 353 351 349 347 347 352 351 352 352 351 350 345 342 335 333 334 335 325 311 304 297 283 270 270 263 265 266 264 266 265 266 268 268 267 266 267 266 268 265 262 265 265 266 264
354 350 353 352 347 341 339 341 344 348 349 350 349 346 342 340 334 328 325 323 324 329 312 309 301 289 289 281 258 262 266 267 267 267 265 263 264 265 265 264 262 264 258 259 264 257 259
339 337 335 337 336 339 338 339 339 341 339 342 337 339 339 334 332 327 322 324 325 325 332 300 304 299 288 286 283 268 268 267 267 266 264 261 261 260 259 257 262 261 258 255 254 255 258
323 324 323 334 331 334 335 334 336 337 335 337 337 331 337 337 329 326 326 326 326 324 324 322 297 297 289 285 279 272 271 272 271 270 267 265 263 262 260 259 257 258 252 250 252 258 258
320 331 323 320 321 324 325 329 332 334 339 339 336 332 328 328 334 326 323 321 323 321 320 310 304 293 285 287 281 274 270 268 269 269 269 267 265 264 264 262 257 255 259 257 254 255 257
323 316 314 317 317 320 320 325 328 332 332 335 336 335 332 326 323 327 323 318 316 318 314 312 309 300 290 275 277 278 274 271 268 266 266 266 266 266 262 262 260 259 257 256 255 256 256
309 312 313 314 315 317 317 320 321 325 327 330 331 330 327 327 322 323 322 318 317 313 309 307 306 304 299 295 290 283 281 278 272 273 272 268 267 266 264 262 261 262 259 255 252 253 255
310 311 308 309 313 311 315 316 319 317 323 325 326 327 324 323 322 320 317 312 309 306 304 302 304 305 301 295 285 282 281 283 280 275 273 272 272 267 264 263 263 260 259 256 254 253 255
311 310 307 309 311 312 312 314 317 319 320 321 324 324 324 319 319 316 314 310 305 304 303 304 302 300 302 295 290 284 281 280 278 275 273 273 270 269 268 268 263 258 261 258 256 253 254
306 307 307 310 312 313 316 315 317 318 317 319 322 317 320 317 314 313 310 307 308 304 305 306 302 302 298 294 290 285 282 280 276 273 274 273 269 268 268 266 265 264 261 261 259 259 255
303 308 307 310 313 314 314 314 314 316 319 318 316 317 318 315 312 310 310 309 306 306 307 309 310 309 307 306 301 289 285 276 272 273 272 270 270 268 267 264 265 265 264 263 263 261 258
302 307 304 308 312 315 317 317 316 319 318 319 314 315 317 315 313 311 309 307 311 311 313 315 313 310 306 306 302 295 288 282 275 271 266 261 261 262 263 262 263 261 258 260 260 261 264
306 301 303 308 312 314 317 318 316 319 322 320 315 314 314 309 309 306 309 311 312 314 313 313 315 311 308 302 298 293 288 282 278 275 272 268 263 262 258 256 258 260 259 259 258 258 258
303 303 303 309 313 317 317 319 325 323 321 319 318 319 316 313 312 312 314 316 311 314 317 316 313 310 305 301 298 292 286 281 280 279 276 273 270 262 261 261 258 251 255 258 258 257 256
307 305 306 308 317 320 324 328 321 321 321 319 317 314 316 314 316 319 319 316 318 321 319 317 311 307 304 302 297 294 290 287 283 278 276 273 270 266 261 259 256 254 255 253 255 256 256
307 305 307 312 317 320 325 325 321 321 318 319 317 315 317 320 320 324 325 324 323 320 318 314 310 308 308 304 301 298 295 291 288 285 279 275 271 266 263 260 257 256 252 251 252 253 252
306 307 310 313 317 326 326 325 322 320 321 317 317 320 321 323 324 325 327 327 322 319 317 315 313 312 310 307 305 301 297 293 289 284 281 279 276 269 263 259 257 253 253 251 250 251 251
305 308 314 317 320 327 325 321 321 318 319 320 318 322 323 323 327 328 329 325 323 320 317 315 315 314 311 309 307 303 301 297 292 287 281 276 273 270 265 260 259 255 252 250 249 250 250
307 312 313 317 319 326 324 322 318 319 321 322 325 324 325 325 328 330 327 326 323 320 319 318 318 315 313 311 308 304 301 297 294 289 284 279 270 264 260 259 257 256 255 254 250 248 251
310 313 312 317 326 322 322 320 319 320 321 324 326 328 328 330 329 328 328 325 323 321 319 319 318 316 314 311 308 306 304 298 293 292 286 280 273 267 258 254 255 254 253 252 250 248 250
311 311 315 324 324 323 321 320 318 320 323 324 326 330 330 330 328 328 326 325 322 321 321 320 320 317 315 312 309 305 304 299 293 293 289 283 274 269 259 254 253 250 250 249 248 249 248
310 316 323 323 322 325 320 320 322 324 325 327 329 331 331 330 330 327 326 323 322 322 321 321 320 319 316 314 310 306 303 296 294 292 290 285 279 270 262 257 252 249 247 245 247 247 245
311 319 323 320 324 323 320 324 322 327 327 329 329 330 331 331 329 328 325 324 323 323 322 321 319 320 317 314 309 306 304 300 297 293 289 284 277 271 265 259 254 250 249 247 246 247 248
317 321 319 322 324 322 323 323 326 328 330 329 330 329 331 330 330 327 325 325 325 324 322 321 321 321 318 316 312 310 308 303 300 295 288 284 279 275 271 265 260 256 252 250 247 247 247
320 314 319 322 320 321 324 325 328 330 331 331 330 331 330 330 329 327 326 327 326 323 321 321 321 320 319 317 314 312 307 304 301 296 289 284 280 276 272 267 258 256 254 253 250 247 247
312 316 320 317 320 321 323 324 329 332 332 330 331 330 329 329 330 329 327 326 326 324 323 322 322 321 321 318 316 316 311 309 305 301 296 290 283 278 275 269 260 257 255 254 251 250 249
315 319 316 319 319 321 324 326 331 331 332 332 330 328 329 331 331 329 328 327 326 326 325 324 324 324 322 318 317 316 313 311 307 302 298 292 286 281 276 272 268 263 258 255 254 252 251
319 318 317 321 322 322 326 329 330 331 333 332 330 332 332 332 330 330 328 326 327 326 325 326 326 326 325 320 318 317 315 313 310 305 300 294 290 282 278 274 270 266 263 258 253 253 254
Height
10762 10759 10756 10752 10748 10744 10741 10738 10735 10731 10727 10724 10721 10717 10714 10710 10707 10703 10699 10694 10690 10687 10683 10681 10680 10678 10675 10671 10664 10670 10663 10661 10661 10660 10656 10656 10656 10653 10654 10654 10650 10659 10649 10650 10647 10649 10648
10760 10758 10755 10751 10747 10743 10739 10736 10733 10729 10725 10721 10717 10713 10709 10705 10702 10698 10694 10689 10685 10680 10678 10674 10671 10668 10664 10659 10660 10654 10654 10652 10650 10648 10645 10643 10642 10643 10646 10640 10638 10641 10642 10639 10639 10636 10635
10757 10755 10752 10749 10745 10741 10737 10733 10729 10725 10721 10717 10714 10710 10704 10700 10694 10690 10686 10682 10678 10674 10671 10667 10663 10658 10652 10648 10649 10642 10639 10639 10637 10636 10634 10630 10629 10630 10631 10627 10626 10629 10631 10629 10628 10621 10620
10755 10753 10750 10746 10741 10736 10733 10729 10725 10722 10719 10714 10710 10705 10700 10695 10689 10685 10680 10675 10670 10666 10663 10658 10654 10650 10644 10639 10636 10634 10628 10625 10623 10620 10618 10616 10615 10616 10614 10611 10615 10614 10618 10619 10609 10604 10603
10753 10749 10746 10742 10737 10732 10728 10725 10721 10717 10713 10709 10703 10698 10693 10687 10682 10678 10673 10668 10662 10655 10650 10648 10644 10639 10635 10631 10624 10620 10615 10610 10608 10603 10601 10598 10596 10596 10597 10598 10599 10599 10594 10593 10598 10592 10586
10749 10746 10743 10739 10734 10728 10724 10720 10715 10712 10706 10701 10695 10689 10685 10679 10674 10668 10664 10658 10653 10646 10638 10636 10633 10629 10626 10620 10611 10604 10603 10599 10594 10588 10584 10578 10578 10580 10579 10575 10578 10569 10578 10583 10586 10579 10567
10745 10741 10738 10734 10729 10723 10718 10713 10709 10704 10699 10693 10686 10680 10675 10671 10665 10658 10653 10647 10640 10637 10625 10622 10618 10618 10609 10607 10599 10588 10586 10583 10578 10576 10567 10561 10562 10565 10554 10552 10557 10554 10558 10561 10558 10552 10548
10739 10735 10732 10727 10723 10717 10711 10706 10702 10697 10690 10684 10678 10672 10665 10660 10654 10648 10641 10635 10629 10625 10625 10606 10606 10600 10595 10590 10584 10575 10568 10562 10560 10555 10549 10544 10549 10539 10535 10534 10532 10531 10532 10543 10534 10522 10520
10734 10730 10726 10721 10717 10711 10704 10698 10693 10688 10682 10676 10669 10663 10655 10648 10639 10635 10629 10623 10616 10610 10607 10600 10593 10585 10578 10572 10564 10555 10548 10541 10536 10533 10524 10521 10526 10517 10510 10510 10507 10506 10509 10511 10503 10494 10501
10728 10723 10719 10715 10710 10705 10698 10690 10684 10679 10672 10666 10659 10651 10648 10633 10627 10619 10611 10604 10596 10590 10585 10581 10575 10567 10557 10547 10540 10530 10522 10516 10511 10504 10496 10500 10500 10488 10480 10491 10472 10477 10474 10472 10474 10473 10481
10721 10716 10712 10707 10702 10697 10691 10683 10675 10668 10661 10655 10648 10639 10631 10625 10614 10605 10595 10587 10578 10571 10560 10560 10551 10542 10529 10521 10510 10501 10488 10481 10475 10467 10462 10473 10468 10459 10452 10457 10433 10463 10448 10441 10441 10444 10446
10713 10709 10705 10699 10694 10688 10682 10675 10666 10658 10649 10642 10636 10627 10616 10608 10601 10591 10580 10570 10559 10551 10540 10528 10519 10508 10497 10483 10471 10462 10452 10438 10434 10427 10414 10433 10424 10421 10420 10411 10406 10417 10415 10410 10408 10413 10407
10706 10701 10696 10691 10685 10679 10672 10664 10656 10648 10639 10630 10622 10613 10603 10593 10582 10572 10562 10551 10536 10528 10512 10505 10489 10472 10453 10445 10428 10411 10403 10385 10380 10372 10369 10373 10383 10374 10364 10368 10369 10371 10375 10371 10368 10376 10394
10698 10693 10688 10682 10676 10669 10662 10654 10645 10635 10626 10617 10608 10596 10587 10576 10566 10553 10542 10526 10515 10501 10485 10465 10450 10434 10415 10394 10385 10365 10348 10329 10323 10317 10315 10318 10329 10325 10322 10318 10334 10329 10329 10324 10335 10345 10352
10689 10684 10679 10674 10667 10659 10651 10641 10631 10623 10613 10602 10590 10579 10568 10557 10544 10530 10518 10501 10487 10470 10451 10430 10415 10394 10379 10349 10316 10312 10297 10283 10270 10261 10259 10260 10268 10288 10278 10271 10275 10291 10283 10295 10280 10297 10297
10681 10675 10670 10663 10656 10647 10637 10628 10617 10607 10597 10585 10572 10560 10548 10535 10522 10506 10489 10469 10445 10426 10407 10379 10355 10342 10321 10306 10285 10260 10249 10229 10228 10221 10213 10213 10224 10232 10233 10225 10227 10234 10241 10248 10246 10251 10253
10671 10665 10659 10652 10644 10636 10625 10614 10603 10591 10579 10566 10552 10537 10525 10511 10493 10476 10460 10438 10411 10387 10367 10340 10311 10290 10270 10255 10240 10222 10207 10197 10186 10178 10174 10176 10184 10198 10190 10178 10188 10193 10199 10203 10206 10203 10214
10661 10655 10648 10640 10632 10620 10610 10599 10588 10575 10560 10546 10531 10515 10499 10485 10464 10442 10420 10399 10377 10349 10319 10290 10267 10245 10224 10208 10202 10185 10171 10161 10151 10144 10139 10139 10149 10157 10152 10149 10151 10158 10155 10168 10167 10169 10174
10651 10644 10636 10627 10616 10604 10594 10583 10571 10559 10545 10529 10510 10491 10471 10455 10435 10416 10383 10360 10333 10306 10274 10250 10228 10210 10189 10171 10166 10147 10136 10124 10119 10115 10113 10108 10112 10122 10119 10120 10121 10121 10121 10131 10139 10137 10140
10639 10631 10623 10613 10601 10589 10576 10565 10553 10538 10522 10508 10490 10468 10444 10416 10398 10372 10353 10326 10297 10266 10233 10211 10192 10172 10159 10140 10125 10120 10111 10099 10092 10086 10084 10084 10086 10086 10092 10086 10090 10094 10098 10101 10110 10115 10112
10628 10619 10610 10598 10584 10574 10560 10548 10532 10516 10500 10483 10465 10449 10417 10385 10359 10336 10312 10282 10252 10231 10206 10183 10168 10141 10129 10120 10104 10086 10081 10075 10059 10062 10059 10060 10058 10062 10062 10061 10060 10072 10074 10075 10079 10083 10089
10615 10606 10594 10582 10570 10558 10545 10527 10507 10494 10476 10458 10437 10419 10399 10361 10335 10307 10273 10244 10217 10194 10172 10153 10139 10122 10102 10089 10079 10075 10063 10047 10041 10036 10037 10037 10037 10038 10033 10035 10041 10046 10048 10051 10054 10060 10065
10601 10590 10578 10567 10555 10540 10525 10508 10493 10476 10453 10429 10404 10387 10369 10344 10309 10277 10245 10215 10189 10165 10144 10123 10113 10101 10083 10068 10054 10046 10044 10034 10027 10021 10019 10015 10015 10014 10012 10013 10016 10022 10023 10028 10030 10035 10042
10586 10575 10563 10552 10538 10521 10505 10490 10471 10451 10428 10402 10382 10362 10339 10317 10280 10242 10212 10188 10162 10139 10118 10101 10089 10079 10066 10053 10036 10027 10024 10015 10010 10005 10001 9998 9997 9995 9994 9994 9996 9998 10000 10005 10010 10013 10018
10570 10559 10548 10534 10518 10503 10488 10469 10448 10428 10403 10373 10351 10327 10303 10286 10248 10218 10186 10165 10139 10117 10092 10071 10062 10056 10047 10034 10022 10009 10001 9997 9994 9990 9986 9983 9981 9978 9977 9978 9978 9978 9980 9984 9990 9993 9993
10555 10544 10532 10516 10501 10485 10468 10448 10428 10402 10381 10354 10325 10296 10269 10242 10219 10184 10159 10136 10124 10102 10082 10062 10046 10036 10027 10015 10004 9997 9986 9980 9977 9973 9971 9967 9964 9962 9961 9961 9962 9960 9961 9964 9968 9971 9971
10540 10528 10514 10500 10485 10467 10447 10428 10406 10383 10358 10329 10303 10273 10243 10213 10185 10157 10134 10112 10097 10083 10067 10052 10038 10020 10007 9995 9988 9981 9972 9966 9959 9957 9953 9951 9949 9947 9945 9945 9946 9944 9945 9949 9950 9951 9954
10525 10512 10498 10484 10466 10447 10427 10407 10386 10362 10338 10308 10279 10251 10220 10184 10159 10131 10109 10091 10074 10059 10047 10034 10023 10009 9997 9984 9974 9968 9961 9953 9948 9943 9939 9936 9934 9931 9930 9929 9929 9929 9931 9932 9933 9933 9935
10508 10495 10481 10465 10447 10426 10407 10386 10364 10339 10315 10289 10259 10221 10188 10164 10138 10112 10093 10076 10061 10046 10029 10017 10007 9996 9986 9974 9963 9954 9949 9943 9938 9933 9928 9924 9919 9917 9915 9914 9912 9912 9912 9915 9916 9915 9916